| time (UTC) | temp F | wind direction | speed MPH | gust MPH | rain 1hr in | rain 24hr in | rain mn in | humidity % | barometer mb |
| 20260504035429 | 58 | 272 | 1.0 | 7.0 | 0.00 | 0.00 | 0.00 | 58 | 1011.7 |
| 20260504034925 | 58 | 248 | 5.0 | 7.0 | 0.00 | 0.00 | 0.00 | 58 | 1011.8 |
| 20260504034423 | 58 | 246 | 0.0 | 7.0 | 0.00 | 0.00 | 0.00 | 57 | 1011.9 |
| 20260504033920 | 58 | 242 | 5.0 | 6.0 | 0.00 | 0.00 | 0.00 | 57 | 1011.9 |
| 20260504033418 | 58 | 257 | 2.0 | 6.0 | 0.00 | 0.00 | 0.00 | 58 | 1011.9 |
| 20260504032915 | 58 | 178 | 2.0 | 4.0 | 0.00 | 0.00 | 0.00 | 58 | 1012.1 |
| 20260504032411 | 58 | 181 | 0.0 | 6.0 | 0.00 | 0.00 | 0.00 | 59 | 1012.2 |
| 20260504031908 | 58 | 285 | 2.0 | 10.0 | 0.00 | 0.00 | 0.00 | 58 | 1011.9 |
| 20260504031405 | 58 | 223 | 3.0 | 6.0 | 0.00 | 0.00 | 0.00 | 59 | 1012.0 |
| 20260504030902 | 58 | 262 | 3.0 | 5.0 | 0.00 | 0.00 | 0.00 | 59 | 1012.1 |
| 20260504030359 | 58 | 269 | 2.0 | 7.0 | 0.00 | 0.00 | 0.00 | 59 | 1012.2 |
| 20260504025855 | 58 | 222 | 5.0 | 6.0 | 0.00 | 0.00 | 0.00 | 59 | 1012.3 |
| 20260504025352 | 58 | 180 | 2.0 | 8.0 | 0.00 | 0.00 | 0.00 | 59 | 1012.3 |
| 20260504024849 | 58 | 219 | 7.0 | 8.0 | 0.00 | 0.00 | 0.00 | 58 | 1012.4 |
| 20260504024345 | 58 | 220 | 2.0 | 6.0 | 0.00 | 0.00 | 0.00 | 59 | 1012.1 |
| 20260504023842 | 58 | 205 | 1.0 | 4.0 | 0.00 | 0.00 | 0.00 | 58 | 1012.2 |
| 20260504023339 | 58 | 168 | 2.0 | 7.0 | 0.00 | 0.00 | 0.00 | 58 | 1012.1 |
| 20260504022834 | 58 | 242 | 3.0 | 5.0 | 0.00 | 0.00 | 0.00 | 58 | 1012.1 |
| 20260504022332 | 58 | 259 | 1.0 | 3.0 | 0.00 | 0.00 | 0.00 | 58 | 1012.1 |
| 20260504021828 | 58 | 225 | 2.0 | 3.0 | 0.00 | 0.00 | 0.00 | 58 | 1012.1 |
| 20260504021326 | 58 | 235 | 3.0 | 5.0 | 0.00 | 0.00 | 0.00 | 58 | 1012.0 |
| 20260504020822 | 58 | 215 | 3.0 | 6.0 | 0.00 | 0.00 | 0.00 | 57 | 1012.1 |
| 20260504020319 | 59 | 236 | 3.0 | 7.0 | 0.00 | 0.00 | 0.00 | 56 | 1012.1 |
| 20260504015815 | 59 | 248 | 0.0 | 4.0 | 0.00 | 0.00 | 0.00 | 56 | 1012.2 |
| 20260504015311 | 59 | 175 | 2.0 | 7.0 | 0.00 | 0.00 | 0.00 | 56 | 1012.0 |
| 20260504014808 | 59 | 238 | 4.0 | 8.0 | 0.00 | 0.00 | 0.00 | 55 | 1012.1 |
| 20260504014303 | 59 | 205 | 4.0 | 7.0 | 0.00 | 0.00 | 0.00 | 55 | 1012.1 |
| 20260504013802 | 59 | 192 | 3.0 | 5.0 | 0.00 | 0.00 | 0.00 | 55 | 1012.2 |
| 20260504013259 | 59 | 198 | 1.0 | 3.0 | 0.00 | 0.00 | 0.00 | 55 | 1012.1 |
| 20260504012755 | 59 | 245 | 3.0 | 4.0 | 0.00 | 0.00 | 0.00 | 56 | 1012.2 |
| 20260504012254 | 60 | 209 | 5.0 | 9.0 | 0.00 | 0.00 | 0.00 | 55 | 1012.1 |
| 20260504011750 | 59 | 207 | 2.0 | 4.0 | 0.00 | 0.00 | 0.00 | 55 | 1012.0 |
| 20260504011247 | 59 | 36 | 1.0 | 3.0 | 0.00 | 0.00 | 0.00 | 56 | 1012.1 |
| 20260504010743 | 59 | 195 | 3.0 | 3.0 | 0.00 | 0.00 | 0.00 | 56 | 1012.0 |
| 20260504010238 | 59 | 257 | 1.0 | 4.0 | 0.00 | 0.00 | 0.00 | 56 | 1012.0 |
| 20260504005735 | 60 | 182 | 2.0 | 8.0 | 0.00 | 0.00 | 0.00 | 55 | 1011.7 |
| 20260504005233 | 60 | 243 | 4.0 | 11.0 | 0.00 | 0.00 | 0.00 | 55 | 1011.7 |
| 20260504004730 | 60 | 215 | 9.0 | 12.0 | 0.00 | 0.00 | 0.00 | 55 | 1011.8 |
| 20260504004227 | 60 | 217 | 5.0 | 11.0 | 0.00 | 0.00 | 0.00 | 56 | 1011.6 |
| 20260504003723 | 60 | 246 | 4.0 | 15.0 | 0.00 | 0.00 | 0.00 | 56 | 1011.8 |
| 20260504003221 | 60 | 220 | 5.0 | 11.0 | 0.00 | 0.00 | 0.00 | 54 | 1011.7 |
| 20260504002717 | 61 | 234 | 7.0 | 9.0 | 0.00 | 0.00 | 0.00 | 53 | 1012.2 |
| 20260504002214 | 61 | 223 | 6.0 | 7.0 | 0.00 | 0.00 | 0.00 | 51 | 1012.6 |
| 20260504001712 | 61 | 229 | 3.0 | 5.0 | 0.00 | 0.00 | 0.00 | 51 | 1012.8 |
| 20260504001209 | 61 | 235 | 3.0 | 10.0 | 0.00 | 0.00 | 0.00 | 51 | 1012.9 |
| 20260504000706 | 61 | 245 | 3.0 | 7.0 | 0.00 | 0.00 | 0.00 | 51 | 1012.8 |
| 20260504000204 | 61 | 196 | 4.0 | 9.0 | 0.00 | 0.00 | 0.00 | 49 | 1012.6 |
| 20260503235701 | 61 | 244 | 3.0 | 9.0 | 0.00 | 0.00 | 0.00 | 49 | 1012.7 |
| 20260503235157 | 62 | 219 | 2.0 | 5.0 | 0.00 | 0.00 | 0.00 | 50 | 1012.8 |
| 20260503234655 | 62 | 219 | 10.0 | 11.0 | 0.00 | 0.00 | 0.00 | 49 | 1012.7 |
| 20260503234154 | 61 | 240 | 3.0 | 6.0 | 0.00 | 0.00 | 0.00 | 49 | 1013.3 |
| 20260503233650 | 61 | 215 | 4.0 | 5.0 | 0.00 | 0.00 | 0.00 | 50 | 1013.2 |
| 20260503233146 | 62 | 228 | 2.0 | 3.0 | 0.00 | 0.00 | 0.00 | 50 | 1013.2 |
| 20260503232643 | 62 | 242 | 2.0 | 3.0 | 0.00 | 0.00 | 0.00 | 50 | 1013.2 |
| 20260503232140 | 62 | 243 | 3.0 | 8.0 | 0.00 | 0.00 | 0.00 | 49 | 1012.9 |
| 20260503231638 | 62 | 289 | 2.0 | 8.0 | 0.00 | 0.00 | 0.00 | 49 | 1012.8 |
| 20260503231134 | 62 | 253 | 2.0 | 3.0 | 0.00 | 0.00 | 0.00 | 49 | 1012.5 |
| 20260503230631 | 62 | 271 | 2.0 | 7.0 | 0.00 | 0.00 | 0.00 | 49 | 1012.7 |
| 20260503230128 | 62 | 195 | 4.0 | 7.0 | 0.00 | 0.00 | 0.00 | 48 | 1012.6 |
| 20260503225626 | 62 | 208 | 2.0 | 16.0 | 0.00 | 0.00 | 0.00 | 48 | 1012.7 |
| 20260503225125 | 62 | 230 | 4.0 | 10.0 | 0.00 | 0.00 | 0.00 | 49 | 1012.7 |
| 20260503224623 | 62 | 197 | 1.0 | 10.0 | 0.00 | 0.00 | 0.00 | 49 | 1012.9 |
| 20260503224121 | 62 | 198 | 7.0 | 11.0 | 0.00 | 0.00 | 0.00 | 48 | 1012.9 |
| 20260503223619 | 62 | 205 | 5.0 | 13.0 | 0.00 | 0.00 | 0.00 | 49 | 1013.0 |
| 20260503223114 | 62 | 296 | 2.0 | 5.0 | 0.00 | 0.00 | 0.00 | 49 | 1013.0 |
| 20260503222612 | 62 | 276 | 2.0 | 6.0 | 0.00 | 0.00 | 0.00 | 48 | 1013.1 |
| 20260503222110 | 62 | 254 | 6.0 | 10.0 | 0.00 | 0.00 | 0.00 | 49 | 1012.9 |
| 20260503221608 | 62 | 248 | 4.0 | 14.0 | 0.00 | 0.00 | 0.00 | 48 | 1013.0 |
| 20260503221105 | 62 | 73 | 2.0 | 14.0 | 0.00 | 0.00 | 0.00 | 48 | 1013.1 |
| 20260503220601 | 62 | 210 | 8.0 | 16.0 | 0.00 | 0.00 | 0.00 | 48 | 1012.8 |
| 20260503220058 | 62 | 227 | 6.0 | 13.0 | 0.00 | 0.00 | 0.00 | 48 | 1012.9 |
| 20260503215555 | 62 | 236 | 4.0 | 14.0 | 0.00 | 0.00 | 0.00 | 47 | 1013.2 |
| 20260503215052 | 62 | 219 | 9.0 | 18.0 | 0.00 | 0.00 | 0.00 | 47 | 1013.2 |
| 20260503214550 | 62 | 240 | 3.0 | 13.0 | 0.00 | 0.00 | 0.00 | 48 | 1013.2 |
| 20260503214046 | 62 | 212 | 13.0 | 15.0 | 0.00 | 0.00 | 0.00 | 47 | 1012.9 |
| 20260503213545 | 61 | 284 | 5.0 | 17.0 | 0.00 | 0.00 | 0.00 | 48 | 1013.2 |
| 20260503213041 | 62 | 247 | 5.0 | 22.0 | 0.00 | 0.00 | 0.00 | 48 | 1013.5 |
| 20260503212539 | 61 | 244 | 8.0 | 26.0 | 0.00 | 0.00 | 0.00 | 48 | 1013.5 |
| 20260503212036 | 62 | 230 | 9.0 | 12.0 | 0.00 | 0.00 | 0.00 | 48 | 1013.8 |
| 20260503211533 | 62 | 245 | 2.0 | 9.0 | 0.00 | 0.00 | 0.00 | 48 | 1013.8 |
| 20260503211028 | 62 | 229 | 6.0 | 8.0 | 0.00 | 0.00 | 0.00 | 47 | 1013.6 |
| 20260503210526 | 61 | 247 | 5.0 | 12.0 | 0.00 | 0.00 | 0.00 | 47 | 1013.8 |
| 20260503210021 | 61 | 237 | 5.0 | 13.0 | 0.00 | 0.00 | 0.00 | 48 | 1014.3 |
| 20260503205518 | 62 | 259 | 3.0 | 6.0 | 0.00 | 0.00 | 0.00 | 48 | 1014.1 |
| 20260503205014 | 61 | 236 | 4.0 | 7.0 | 0.00 | 0.00 | 0.00 | 47 | 1014.5 |
| 20260503204512 | 61 | 250 | 4.0 | 10.0 | 0.00 | 0.00 | 0.00 | 47 | 1014.9 |
| 20260503204008 | 61 | 290 | 8.0 | 18.0 | 0.00 | 0.00 | 0.00 | 46 | 1015.2 |
| 20260503203506 | 61 | 244 | 4.0 | 7.0 | 0.00 | 0.00 | 0.00 | 48 | 1015.4 |
| 20260503203003 | 61 | 186 | 5.0 | 9.0 | 0.00 | 0.00 | 0.00 | 46 | 1015.4 |
| 20260503202500 | 61 | 277 | 5.0 | 12.0 | 0.00 | 0.00 | 0.00 | 45 | 1015.8 |
| 20260503201959 | 62 | 281 | 8.0 | 15.0 | 0.00 | 0.00 | 0.00 | 44 | 1015.7 |
| 20260503201456 | 62 | 246 | 5.0 | 9.0 | 0.00 | 0.00 | 0.00 | 45 | 1015.5 |
| 20260503200953 | 62 | 236 | 16.0 | 19.0 | 0.00 | 0.00 | 0.00 | 45 | 1015.5 |
| 20260503200449 | 62 | 269 | 4.0 | 22.0 | 0.00 | 0.00 | 0.00 | 44 | 1015.4 |
| 20260503195946 | 62 | 272 | 5.0 | 18.0 | 0.00 | 0.00 | 0.00 | 45 | 1015.4 |
| 20260503195444 | 63 | 215 | 8.0 | 16.0 | 0.00 | 0.00 | 0.00 | 45 | 1015.4 |
| 20260503194940 | 62 | 240 | 6.0 | 15.0 | 0.00 | 0.00 | 0.00 | 46 | 1015.6 |
| 20260503194437 | 62 | 236 | 4.0 | 8.0 | 0.00 | 0.00 | 0.00 | 46 | 1015.6 |
| 20260503193932 | 62 | 253 | 3.0 | 16.0 | 0.00 | 0.00 | 0.00 | 45 | 1015.5 |
| 20260503193428 | 62 | 242 | 2.0 | 13.0 | 0.00 | 0.00 | 0.00 | 44 | 1015.8 |
| 20260503192923 | 61 | 241 | 8.0 | 21.0 | 0.00 | 0.00 | 0.00 | 46 | 1015.8 |
| 20260503192421 | 62 | 237 | 7.0 | 13.0 | 0.00 | 0.00 | 0.00 | 45 | 1015.8 |
| 20260503191916 | 62 | 265 | 3.0 | 11.0 | 0.00 | 0.00 | 0.00 | 45 | 1016.1 |
| 20260503191414 | 62 | 77 | 0.0 | 11.0 | 0.00 | 0.00 | 0.00 | 46 | 1015.5 |
| 20260503190910 | 61 | 251 | 4.0 | 16.0 | 0.00 | 0.00 | 0.00 | 46 | 1016.2 |
| 20260503190408 | 61 | 239 | 6.0 | 13.0 | 0.00 | 0.00 | 0.00 | 47 | 1016.3 |
| 20260503185904 | 61 | 244 | 8.0 | 13.0 | 0.00 | 0.00 | 0.00 | 46 | 1016.2 |
| 20260503185401 | 61 | 234 | 12.0 | 13.0 | 0.00 | 0.00 | 0.00 | 45 | 1016.3 |
| 20260503184900 | 61 | 239 | 5.0 | 15.0 | 0.00 | 0.00 | 0.00 | 46 | 1016.5 |
| 20260503184356 | 61 | 221 | 8.0 | 14.0 | 0.00 | 0.00 | 0.00 | 46 | 1016.4 |
| 20260503183853 | 61 | 214 | 4.0 | 14.0 | 0.00 | 0.00 | 0.00 | 46 | 1016.3 |
| 20260503183350 | 61 | 253 | 5.0 | 16.0 | 0.00 | 0.00 | 0.00 | 48 | 1016.7 |
| 20260503182847 | 60 | 206 | 4.0 | 16.0 | 0.00 | 0.00 | 0.00 | 47 | 1016.9 |
| 20260503182346 | 60 | 213 | 11.0 | 21.0 | 0.00 | 0.00 | 0.00 | 46 | 1017.1 |
| 20260503181842 | 60 | 230 | 11.0 | 18.0 | 0.00 | 0.00 | 0.00 | 46 | 1017.3 |
| 20260503181340 | 62 | 197 | 7.0 | 11.0 | 0.00 | 0.00 | 0.00 | 45 | 1017.3 |
| 20260503180836 | 60 | 292 | 8.0 | 17.0 | 0.00 | 0.00 | 0.00 | 45 | 1017.2 |
| 20260503180334 | 61 | 221 | 7.0 | 13.0 | 0.00 | 0.00 | 0.00 | 45 | 1017.1 |
| 20260503175830 | 60 | 288 | 3.0 | 17.0 | 0.00 | 0.00 | 0.00 | 46 | 1017.9 |
| 20260503175328 | 60 | 228 | 6.0 | 12.0 | 0.00 | 0.00 | 0.00 | 45 | 1017.7 |
| 20260503174823 | 61 | 250 | 4.0 | 12.0 | 0.00 | 0.00 | 0.00 | 45 | 1017.7 |
| 20260503174322 | 59 | 225 | 2.0 | 18.0 | 0.00 | 0.00 | 0.00 | 45 | 1017.9 |
| 20260503173817 | 60 | 263 | 5.0 | 15.0 | 0.00 | 0.00 | 0.00 | 46 | 1018.2 |
| 20260503173314 | 61 | 205 | 6.0 | 11.0 | 0.00 | 0.00 | 0.00 | 45 | 1018.3 |
| 20260503172810 | 60 | 288 | 8.0 | 17.0 | 0.00 | 0.00 | 0.00 | 45 | 1018.3 |
| 20260503172308 | 59 | 242 | 12.0 | 15.0 | 0.00 | 0.00 | 0.00 | 44 | 1018.5 |
| 20260503171804 | 60 | 223 | 5.0 | 17.0 | 0.00 | 0.00 | 0.00 | 45 | 1018.5 |
| 20260503171301 | 60 | 279 | 5.0 | 15.0 | 0.00 | 0.00 | 0.00 | 44 | 1018.3 |
| 20260503170758 | 59 | 229 | 4.0 | 24.0 | 0.00 | 0.00 | 0.00 | 46 | 1018.5 |
| 20260503170255 | 60 | 238 | 4.0 | 14.0 | 0.00 | 0.00 | 0.00 | 47 | 1018.3 |
| 20260503160217 | 57 | 232 | 5.0 | 13.0 | 0.00 | 0.00 | 0.00 | 46 | 1019.0 |
| 20260503150647 | 55 | 157 | 1.0 | 14.0 | 0.00 | 0.00 | 0.00 | 48 | 1019.8 |
| 20260503150143 | 57 | 227 | 3.0 | 12.0 | 0.00 | 0.00 | 0.00 | 47 | 1019.6 |
| 20260503140108 | 52 | 229 | 9.0 | 12.0 | 0.00 | 0.00 | 0.00 | 50 | 1020.1 |
| 20260503131037 | 49 | 210 | 5.0 | 9.0 | 0.00 | 0.00 | 0.00 | 55 | 1020.1 |
| 20260503130534 | 49 | 246 | 3.0 | 9.0 | 0.00 | 0.00 | 0.00 | 57 | 1020.1 |
| 20260503110425 | 33 | 72 | 2.0 | 3.0 | 0.00 | 0.00 | 0.00 | 97 | 1019.6 |
| 20260503090315 | 34 | 67 | 1.0 | 3.0 | 0.00 | 0.00 | 0.00 | 95 | 1019.1 |
| 20260503081243 | 34 | 124 | 0.0 | 2.0 | 0.00 | 0.00 | 0.00 | 95 | 1019.3 |
| 20260503080738 | 34 | 72 | 1.0 | 3.0 | 0.00 | 0.00 | 0.00 | 95 | 1019.4 |
| 20260503080236 | 34 | 70 | 1.0 | 2.0 | 0.00 | 0.00 | 0.00 | 95 | 1019.0 |
| 20260503072712 | 35 | 93 | 0.0 | 3.0 | 0.00 | 0.00 | 0.00 | 94 | 1019.0 |
| 20260503072209 | 35 | 83 | 1.0 | 2.0 | 0.00 | 0.00 | 0.00 | 94 | 1019.1 |
| 20260503071706 | 35 | 109 | 0.0 | 3.0 | 0.00 | 0.00 | 0.00 | 93 | 1019.2 |
| 20260503071203 | 35 | 99 | 2.0 | 3.0 | 0.00 | 0.00 | 0.00 | 93 | 1019.1 |
| 20260503070659 | 35 | 58 | 0.0 | 3.0 | 0.00 | 0.00 | 0.00 | 93 | 1019.1 |
| 20260503070158 | 35 | 49 | 1.0 | 2.0 | 0.00 | 0.00 | 0.00 | 94 | 1019.1 |
| 20260503060122 | 35 | 87 | 1.0 | 3.0 | 0.00 | 0.00 | 0.00 | 91 | 1019.5 |
| 20260503055114 | 35 | 77 | 0.0 | 2.0 | 0.00 | 0.00 | 0.00 | 91 | 1019.7 |
| 20260503054609 | 35 | 116 | 0.0 | 3.0 | 0.00 | 0.00 | 0.00 | 90 | 1019.7 |
| 20260503054106 | 35 | 95 | 2.0 | 3.0 | 0.00 | 0.00 | 0.00 | 89 | 1019.7 |
| 20260503053604 | 36 | 93 | 1.0 | 2.0 | 0.00 | 0.00 | 0.00 | 89 | 1019.9 |
| 20260503053102 | 36 | 61 | 0.0 | 2.0 | 0.00 | 0.00 | 0.00 | 89 | 1019.7 |
| 20260503052558 | 36 | 76 | 0.0 | 2.0 | 0.00 | 0.00 | 0.00 | 89 | 1019.9 |
| 20260503052055 | 36 | 89 | 0.0 | 2.0 | 0.00 | 0.00 | 0.00 | 89 | 1019.8 |
| 20260503051550 | 37 | 140 | 0.0 | 2.0 | 0.00 | 0.00 | 0.00 | 89 | 1019.8 |
| 20260503051048 | 37 | 60 | 2.0 | 3.0 | 0.00 | 0.00 | 0.00 | 88 | 1019.8 |
| 20260503050544 | 37 | 75 | 1.0 | 2.0 | 0.00 | 0.00 | 0.00 | 87 | 1019.7 |
| 20260503050042 | 37 | 76 | 0.0 | 2.0 | 0.00 | 0.00 | 0.00 | 87 | 1019.6 |
| 20260503045538 | 37 | 117 | 0.0 | 2.0 | 0.00 | 0.00 | 0.00 | 87 | 1019.7 |
| 20260503045036 | 37 | 92 | 1.0 | 2.0 | 0.00 | 0.00 | 0.00 | 87 | 1019.7 |
| 20260503044532 | 37 | 109 | 0.0 | 2.0 | 0.00 | 0.00 | 0.00 | 86 | 1019.6 |
| 20260503044030 | 37 | 67 | 0.0 | 2.0 | 0.00 | 0.00 | 0.00 | 87 | 1019.7 |
| 20260503043526 | 38 | 78 | 0.0 | 1.0 | 0.00 | 0.00 | 0.00 | 87 | 1019.7 |
| 20260503043023 | 38 | 42 | 0.0 | 2.0 | 0.00 | 0.00 | 0.00 | 87 | 1019.6 |
| 20260503042520 | 38 | 87 | 0.0 | 2.0 | 0.00 | 0.00 | 0.00 | 86 | 1019.6 |
| 20260503042016 | 38 | 64 | 0.0 | 2.0 | 0.00 | 0.00 | 0.00 | 86 | 1019.7 |
| 20260503041513 | 38 | 103 | 0.0 | 2.0 | 0.00 | 0.00 | 0.00 | 86 | 1019.6 |
| 20260503041011 | 38 | 83 | 0.0 | 2.0 | 0.00 | 0.00 | 0.00 | 84 | 1019.7 |
| 20260503040508 | 38 | 135 | 0.0 | 2.0 | 0.00 | 0.00 | 0.00 | 84 | 1019.8 |
| 20260503040005 | 38 | 129 | 1.0 | 2.0 | 0.00 | 0.00 | 0.00 | 84 | 1019.6 |